ONEWEB-0126 (47272 NORAD) Tracking and Keplerian Element Data

This shows tracking and keplerian element data for the satellite.

Feedback or suggestion? Click here.




ElementValue
Catalog47272
NameONEWEB-0126
Epoch Orbit174
Epoch Day56.91667824
Epoch Year2021
RAAN17.2365
Inclination87.6168
Eccentricity0.0010221
Argument of Perigee32.4933
Mean Anonmoly251.768
Mean Motion14.03262969
Decay Rate-0.01113298
L11 47272U 20100Q 21056.91667824 -.01113298 00000-0 -76294+0 0 9996
L22 47272 87.6168 17.2365 0010221 32.4933 251.7680 14.03262969 1747

Live tracking and technical data element details for ONEWEB-0126 (NORAD 47272). ONEWEB-0126 can be tracked NOW for your location showing map with azimuth and elevation plus other details from your city location.

Track the satellite on the map from your city or location and see movement details for azimuth, elevation, latitude, longitude, range, height, and movement on the map or in text.







IsCatalogInMostPopularTable: catalog: 47272, numindb: 27
Update: records affected: 1



GetName: 47272 ONEWEB-0126

Hit Count: updated at: Sat, 27 Feb 2021 02:57:29 GMT